| time (UTC) | temp C | wind direction | speed KPH | gust KPH | rain 1hr cm | rain 24hr cm | rain mn cm | humidity % | barometer mb |
| 20260506201512 | 22 | 22 | 1.6 | 6.4 | 0.00 | 0.00 | 0.00 | 63 | 1019.0 |
| 20260506201012 | 21 | 85 | 3.2 | 9.7 | 0.00 | 0.00 | 0.00 | 66 | 1019.0 |
| 20260506200512 | 21 | 93 | 1.6 | 14.5 | 0.00 | 0.00 | 0.00 | 61 | 1019.1 |
| 20260506200012 | 21 | 58 | 1.6 | 14.5 | 0.00 | 0.00 | 0.00 | 61 | 1019.1 |
| 20260506195512 | 21 | 39 | 1.6 | 6.4 | 0.00 | 0.00 | 0.00 | 60 | 1019.2 |
| 20260506195011 | 21 | 38 | 1.6 | 8.0 | 0.00 | 0.00 | 0.00 | 64 | 1019.2 |
| 20260506194736 | 21 | 39 | 3.2 | 11.3 | 0.00 | 0.00 | 0.00 | 63 | 1019.3 |
| 20260506194006 | 21 | 22 | 1.6 | 9.7 | 0.00 | 0.00 | 0.00 | 63 | 1019.4 |
| 20260506193504 | 21 | 56 | 1.6 | 6.4 | 0.00 | 0.00 | 0.00 | 64 | 1019.5 |
| 20260506193002 | 21 | 57 | 3.2 | 8.0 | 0.00 | 0.00 | 0.00 | 65 | 1019.5 |
| 20260506192727 | 20 | 30 | 3.2 | 9.7 | 0.00 | 0.00 | 0.00 | 64 | 1019.6 |
| 20260506192002 | 20 | 90 | 3.2 | 9.7 | 0.00 | 0.00 | 0.00 | 63 | 1019.6 |
| 20260506191500 | 20 | 44 | 3.2 | 8.0 | 0.00 | 0.00 | 0.00 | 64 | 1019.7 |
| 20260506191000 | 20 | 53 | 3.2 | 8.0 | 0.00 | 0.00 | 0.00 | 65 | 1019.7 |
| 20260506190500 | 20 | 5 | 1.6 | 4.8 | 0.00 | 0.00 | 0.00 | 66 | 1019.7 |
| 20260506185958 | 20 | 5 | 3.2 | 11.3 | 0.00 | 0.00 | 0.00 | 65 | 1019.7 |
| 20260506185716 | 20 | 5 | 3.2 | 11.3 | 0.00 | 0.00 | 0.00 | 65 | 1019.8 |
| 20260506184954 | 20 | 59 | 3.2 | 11.3 | 0.00 | 0.00 | 0.00 | 65 | 1019.7 |
| 20260506184727 | 20 | 142 | 3.2 | 11.3 | 0.00 | 0.00 | 0.00 | 67 | 1019.6 |
| 20260506183949 | 20 | 92 | 3.2 | 9.7 | 0.00 | 0.00 | 0.00 | 67 | 1019.7 |
| 20260506183447 | 20 | 26 | 3.2 | 9.7 | 0.00 | 0.00 | 0.00 | 67 | 1019.6 |
| 20260506182948 | 20 | 5 | 3.2 | 8.0 | 0.00 | 0.00 | 0.00 | 71 | 1019.7 |
| 20260506182448 | 20 | 85 | 4.8 | 14.5 | 0.00 | 0.00 | 0.00 | 71 | 1019.7 |
| 20260506181948 | 20 | 38 | 3.2 | 14.5 | 0.00 | 0.00 | 0.00 | 68 | 1019.7 |
| 20260506181448 | 21 | 9 | 1.6 | 6.4 | 0.00 | 0.00 | 0.00 | 69 | 1019.8 |
| 20260506180948 | 20 | 26 | 1.6 | 6.4 | 0.00 | 0.00 | 0.00 | 70 | 1019.8 |
| 20260506180448 | 20 | 80 | 1.6 | 6.4 | 0.00 | 0.00 | 0.00 | 74 | 1019.8 |
| 20260506175947 | 20 | 111 | 1.6 | 6.4 | 0.00 | 0.00 | 0.00 | 73 | 1019.7 |
| 20260506175449 | 20 | 17 | 1.6 | 9.7 | 0.00 | 0.00 | 0.00 | 73 | 1019.8 |
| 20260506174944 | 20 | 13 | 1.6 | 9.7 | 0.00 | 0.00 | 0.00 | 74 | 1019.9 |
| 20260506174443 | 19 | 347 | 1.6 | 6.4 | 0.00 | 0.00 | 0.00 | 74 | 1019.8 |
| 20260506173444 | 18 | 49 | 1.6 | 9.7 | 0.00 | 0.00 | 0.00 | 76 | 1019.8 |
| 20260506172945 | 18 | 59 | 0.0 | 6.4 | 0.00 | 0.00 | 0.00 | 77 | 1019.7 |
| 20260506172444 | 18 | 53 | 1.6 | 6.4 | 0.00 | 0.00 | 0.00 | 78 | 1019.8 |
| 20260506171945 | 18 | 79 | 1.6 | 6.4 | 0.00 | 0.00 | 0.00 | 77 | 1019.8 |
| 20260506171444 | 18 | 126 | 0.0 | 6.4 | 0.00 | 0.00 | 0.00 | 77 | 1019.8 |
| 20260506171209 | 18 | 139 | 0.0 | 4.8 | 0.00 | 0.00 | 0.00 | 78 | 1019.8 |
| 20260506170442 | 18 | 57 | 1.6 | 6.4 | 0.00 | 0.00 | 0.00 | 77 | 1019.8 |
| 20260506165940 | 18 | 68 | 1.6 | 8.0 | 0.00 | 0.00 | 0.00 | 78 | 1019.9 |
| 20260506165440 | 18 | 18 | 1.6 | 8.0 | 0.00 | 0.00 | 0.00 | 78 | 1019.8 |
| 20260506164940 | 18 | 53 | 1.6 | 6.4 | 0.00 | 0.00 | 0.00 | 78 | 1019.8 |
| 20260506164440 | 18 | 67 | 0.0 | 6.4 | 0.00 | 0.00 | 0.00 | 78 | 1019.9 |
| 20260506164203 | 18 | 134 | 0.0 | 1.6 | 0.00 | 0.00 | 0.00 | 77 | 1019.8 |
| 20260506163439 | 18 | 138 | 0.0 | 1.6 | 0.00 | 0.00 | 0.00 | 79 | 1019.7 |
| 20260506162939 | 17 | 138 | 0.0 | 1.6 | 0.00 | 0.00 | 0.00 | 81 | 1019.7 |
| 20260506162441 | 17 | 240 | 0.0 | 3.2 | 0.00 | 0.00 | 0.00 | 78 | 1019.8 |
| 20260506161935 | 17 | 240 | 0.0 | 3.2 | 0.00 | 0.00 | 0.00 | 78 | 1019.8 |
| 20260506161435 | 17 | 240 | 0.0 | 3.2 | 0.00 | 0.00 | 0.00 | 78 | 1019.8 |
| 20260506161205 | 17 | 241 | 0.0 | 1.6 | 0.00 | 0.00 | 0.00 | 78 | 1019.8 |
| 20260506160434 | 16 | 242 | 0.0 | 1.6 | 0.00 | 0.00 | 0.00 | 78 | 1019.8 |
| 20260506160202 | 16 | 171 | 0.0 | 3.2 | 0.00 | 0.00 | 0.00 | 78 | 1019.8 |
| 20260506155434 | 17 | 220 | 1.6 | 4.8 | 0.00 | 0.00 | 0.00 | 79 | 1019.9 |
| 20260506154935 | 17 | 256 | 0.0 | 4.8 | 0.00 | 0.00 | 0.00 | 79 | 1019.8 |
| 20260506154434 | 16 | 13 | 0.0 | 0.0 | 0.00 | 0.00 | 0.00 | 80 | 1019.8 |
| 20260506153934 | 16 | 13 | 0.0 | 0.0 | 0.00 | 0.00 | 0.00 | 80 | 1019.7 |
| 20260506153434 | 16 | 13 | 0.0 | 0.0 | 0.00 | 0.00 | 0.00 | 80 | 1019.8 |
| 20260506153154 | 16 | 13 | 0.0 | 0.0 | 0.00 | 0.00 | 0.00 | 80 | 1019.8 |
| 20260506152430 | 16 | 344 | 0.0 | 0.0 | 0.00 | 0.00 | 0.00 | 80 | 1019.8 |
| 20260506151930 | 16 | 115 | 0.0 | 1.6 | 0.00 | 0.00 | 0.00 | 80 | 1019.7 |
| 20260506151430 | 16 | 84 | 0.0 | 1.6 | 0.00 | 0.00 | 0.00 | 81 | 1019.7 |
| 20260506150930 | 16 | 105 | 0.0 | 0.0 | 0.00 | 0.00 | 0.00 | 82 | 1019.6 |
| 20260506150429 | 15 | 198 | 0.0 | 0.0 | 0.00 | 0.00 | 0.00 | 82 | 1019.6 |
| 20260506150146 | 15 | 198 | 0.0 | 0.0 | 0.00 | 0.00 | 0.00 | 83 | 1019.6 |
| 20260506145631 | 15 | 170 | 0.0 | 0.0 | 0.00 | 0.00 | 0.00 | 83 | 1019.5 |
| 20260506144909 | 15 | 240 | 0.0 | 0.0 | 0.00 | 0.00 | 0.00 | 82 | 1019.6 |
| 20260506144402 | 15 | 240 | 0.0 | 0.0 | 0.00 | 0.00 | 0.00 | 84 | 1019.5 |
| 20260506143857 | 15 | 240 | 0.0 | 0.0 | 0.00 | 0.00 | 0.00 | 83 | 1019.5 |
| 20260506143618 | 15 | 240 | 0.0 | 0.0 | 0.00 | 0.00 | 0.00 | 84 | 1019.5 |
| 20260506142846 | 15 | 240 | 0.0 | 0.0 | 0.00 | 0.00 | 0.00 | 84 | 1019.4 |
| 20260506142558 | 15 | 238 | 0.0 | 0.0 | 0.00 | 0.00 | 0.00 | 86 | 1019.4 |
| 20260506141833 | 14 | 238 | 0.0 | 0.0 | 0.00 | 0.00 | 0.00 | 85 | 1019.4 |
| 20260506141327 | 14 | 238 | 0.0 | 0.0 | 0.00 | 0.00 | 0.00 | 85 | 1019.3 |
| 20260506141043 | 14 | 238 | 0.0 | 0.0 | 0.00 | 0.00 | 0.00 | 86 | 1019.3 |
| 20260506140314 | 14 | 238 | 0.0 | 0.0 | 0.00 | 0.00 | 0.00 | 86 | 1019.3 |
| 20260506135809 | 13 | 238 | 0.0 | 0.0 | 0.00 | 0.00 | 0.00 | 86 | 1019.2 |
| 20260506135527 | 13 | 238 | 0.0 | 0.0 | 0.00 | 0.00 | 0.00 | 85 | 1019.2 |
| 20260506134250 | 13 | 238 | 0.0 | 0.0 | 0.00 | 0.00 | 0.00 | 86 | 1019.1 |
| 20260506134006 | 13 | 238 | 0.0 | 0.0 | 0.00 | 0.00 | 0.00 | 86 | 1019.1 |
| 20260506133239 | 13 | 238 | 0.0 | 0.0 | 0.00 | 0.00 | 0.00 | 86 | 1019.1 |
| 20260506132959 | 13 | 238 | 0.0 | 0.0 | 0.00 | 0.00 | 0.00 | 86 | 1019.1 |
| 20260506132227 | 13 | 238 | 0.0 | 0.0 | 0.00 | 0.00 | 0.00 | 85 | 1019.0 |
| 20260506131720 | 13 | 238 | 0.0 | 0.0 | 0.00 | 0.00 | 0.00 | 84 | 1018.9 |
| 20260506131215 | 13 | 238 | 0.0 | 0.0 | 0.00 | 0.00 | 0.00 | 83 | 1018.8 |
| 20260506130709 | 13 | 238 | 0.0 | 0.0 | 0.00 | 0.00 | 0.00 | 83 | 1018.8 |
| 20260506130203 | 13 | 238 | 0.0 | 1.6 | 0.00 | 0.00 | 0.00 | 83 | 1018.8 |
| 20260506125657 | 13 | 238 | 0.0 | 3.2 | 0.00 | 0.00 | 0.00 | 83 | 1018.8 |
| 20260506125152 | 13 | 238 | 0.0 | 1.6 | 0.00 | 0.00 | 0.00 | 83 | 1018.7 |
| 20260506124646 | 13 | 238 | 0.0 | 3.2 | 0.00 | 0.00 | 0.00 | 83 | 1018.7 |
| 20260506124401 | 13 | 238 | 0.0 | 4.8 | 0.00 | 0.00 | 0.00 | 83 | 1018.6 |
| 20260506123633 | 13 | 238 | 0.0 | 4.8 | 0.00 | 0.00 | 0.00 | 83 | 1018.7 |
| 20260506123127 | 13 | 238 | 0.0 | 4.8 | 0.00 | 0.00 | 0.00 | 83 | 1018.7 |
| 20260506122621 | 14 | 238 | 0.0 | 4.8 | 0.00 | 0.00 | 0.00 | 82 | 1018.6 |
| 20260506122114 | 14 | 238 | 1.6 | 6.4 | 0.00 | 0.00 | 0.00 | 82 | 1018.6 |
| 20260506121609 | 14 | 238 | 1.6 | 6.4 | 0.00 | 0.00 | 0.00 | 82 | 1018.6 |
| 20260506121103 | 13 | 238 | 0.0 | 3.2 | 0.00 | 0.00 | 0.00 | 82 | 1018.5 |
| 20260506120558 | 13 | 238 | 0.0 | 4.8 | 0.00 | 0.00 | 0.00 | 82 | 1018.5 |
| 20260506120315 | 13 | 238 | 0.0 | 4.8 | 0.00 | 0.00 | 0.00 | 82 | 1018.4 |
| 20260506115545 | 13 | 238 | 0.0 | 4.8 | 0.00 | 0.00 | 0.00 | 82 | 1018.4 |
| 20260506115307 | 14 | 238 | 0.0 | 4.8 | 0.00 | 0.00 | 0.00 | 82 | 1018.4 |
| 20260506114758 | 13 | 238 | 0.0 | 3.2 | 0.00 | 0.00 | 0.00 | 82 | 1018.4 |
| 20260506114028 | 14 | 238 | 0.0 | 3.2 | 0.00 | 0.00 | 0.00 | 82 | 1018.4 |
| 20260506113521 | 14 | 238 | 0.0 | 3.2 | 0.00 | 0.00 | 0.00 | 82 | 1018.4 |
| 20260506113015 | 14 | 238 | 0.0 | 3.2 | 0.00 | 0.00 | 0.00 | 82 | 1018.3 |
| 20260506112509 | 14 | 238 | 0.0 | 3.2 | 0.00 | 0.00 | 0.00 | 81 | 1018.3 |
| 20260506112226 | 14 | 238 | 0.0 | 3.2 | 0.00 | 0.00 | 0.00 | 81 | 1018.2 |
| 20260506111458 | 14 | 238 | 0.0 | 3.2 | 0.00 | 0.00 | 0.00 | 81 | 1018.2 |
| 20260506110951 | 14 | 238 | 0.0 | 3.2 | 0.00 | 0.00 | 0.00 | 81 | 1018.2 |
| 20260506110444 | 14 | 238 | 0.0 | 3.2 | 0.00 | 0.00 | 0.00 | 81 | 1018.1 |
| 20260506105939 | 14 | 238 | 0.0 | 1.6 | 0.00 | 0.00 | 0.00 | 82 | 1018.1 |
| 20260506105702 | 14 | 238 | 0.0 | 3.2 | 0.00 | 0.00 | 0.00 | 81 | 1018.1 |
| 20260506104938 | 14 | 238 | 1.6 | 6.4 | 0.00 | 0.00 | 0.00 | 81 | 1018.1 |
| 20260506104435 | 14 | 238 | 1.6 | 6.4 | 0.00 | 0.00 | 0.00 | 81 | 1018.1 |
| 20260506103935 | 14 | 238 | 1.6 | 6.4 | 0.00 | 0.00 | 0.00 | 81 | 1018.0 |
| 20260506103434 | 14 | 238 | 1.6 | 6.4 | 0.00 | 0.00 | 0.00 | 81 | 1017.9 |
| 20260506102933 | 14 | 238 | 1.6 | 8.0 | 0.00 | 0.00 | 0.00 | 81 | 1017.8 |
| 20260506102433 | 14 | 238 | 1.6 | 8.0 | 0.00 | 0.00 | 0.00 | 81 | 1017.7 |
| 20260506102153 | 14 | 238 | 1.6 | 6.4 | 0.00 | 0.00 | 0.00 | 81 | 1017.8 |
| 20260506101656 | 14 | 238 | 3.2 | 11.3 | 0.00 | 0.00 | 0.00 | 80 | 1017.8 |
| 20260506101151 | 14 | 241 | 3.2 | 11.3 | 0.00 | 0.00 | 0.00 | 80 | 1017.7 |
| 20260506100432 | 14 | 221 | 3.2 | 6.4 | 0.00 | 0.00 | 0.00 | 80 | 1017.8 |
| 20260506095931 | 14 | 220 | 1.6 | 6.4 | 0.00 | 0.00 | 0.00 | 80 | 1017.8 |
| 20260506094931 | 14 | 219 | 1.6 | 6.4 | 0.00 | 0.00 | 0.00 | 80 | 1017.7 |
| 20260506094432 | 14 | 219 | 3.2 | 6.4 | 0.00 | 0.00 | 0.00 | 80 | 1017.7 |
| 20260506093929 | 14 | 218 | 1.6 | 6.4 | 0.00 | 0.00 | 0.00 | 80 | 1017.7 |
| 20260506093429 | 14 | 219 | 3.2 | 4.8 | 0.00 | 0.00 | 0.00 | 80 | 1017.8 |
| 20260506092929 | 14 | 219 | 1.6 | 4.8 | 0.00 | 0.00 | 0.00 | 80 | 1017.8 |
| 20260506092424 | 14 | 219 | 1.6 | 4.8 | 0.00 | 0.00 | 0.00 | 80 | 1017.8 |
| 20260506091916 | 14 | 219 | 1.6 | 4.8 | 0.00 | 0.00 | 0.00 | 80 | 1017.8 |
| 20260506091412 | 14 | 219 | 1.6 | 4.8 | 0.00 | 0.00 | 0.00 | 80 | 1017.8 |
| 20260506090905 | 14 | 219 | 3.2 | 6.4 | 0.00 | 0.00 | 0.00 | 80 | 1017.8 |
| 20260506090359 | 14 | 219 | 3.2 | 8.0 | 0.00 | 0.00 | 0.00 | 79 | 1017.8 |
| 20260506085853 | 14 | 217 | 3.2 | 8.0 | 0.00 | 0.00 | 0.00 | 79 | 1017.9 |
| 20260506085347 | 14 | 218 | 4.8 | 9.7 | 0.00 | 0.00 | 0.00 | 79 | 1017.8 |
| 20260506084841 | 14 | 217 | 4.8 | 9.7 | 0.00 | 0.00 | 0.00 | 79 | 1017.8 |
| 20260506084336 | 15 | 199 | 3.2 | 9.7 | 0.00 | 0.00 | 0.00 | 79 | 1017.8 |
| 20260506083837 | 15 | 226 | 3.2 | 6.4 | 0.00 | 0.00 | 0.00 | 78 | 1017.8 |
| 20260506083336 | 15 | 236 | 3.2 | 6.4 | 0.00 | 0.00 | 0.00 | 78 | 1017.9 |
| 20260506082834 | 15 | 240 | 1.6 | 6.4 | 0.00 | 0.00 | 0.00 | 78 | 1017.8 |
| 20260506082334 | 15 | 242 | 1.6 | 6.4 | 0.00 | 0.00 | 0.00 | 79 | 1017.8 |
| 20260506081833 | 15 | 213 | 3.2 | 6.4 | 0.00 | 0.00 | 0.00 | 78 | 1017.8 |
| 20260506081333 | 15 | 213 | 1.6 | 6.4 | 0.00 | 0.00 | 0.00 | 78 | 1017.8 |
| 20260506080334 | 15 | 210 | 1.6 | 4.8 | 0.00 | 0.00 | 0.00 | 79 | 1017.7 |
| 20260506073327 | 15 | 210 | 3.2 | 8.0 | 0.00 | 0.03 | 0.00 | 78 | 1017.5 |
| 20260506072826 | 15 | 206 | 3.2 | 11.3 | 0.00 | 0.03 | 0.00 | 78 | 1017.5 |
| 20260506072326 | 15 | 236 | 3.2 | 11.3 | 0.00 | 0.03 | 0.00 | 77 | 1017.4 |
| 20260506071827 | 15 | 228 | 3.2 | 6.4 | 0.00 | 0.05 | 0.00 | 78 | 1017.4 |
| 20260506071327 | 15 | 226 | 3.2 | 6.4 | 0.00 | 0.05 | 0.00 | 77 | 1017.3 |
| 20260506070826 | 15 | 229 | 1.6 | 4.8 | 0.00 | 0.05 | 0.00 | 77 | 1017.2 |
| 20260506070329 | 15 | 234 | 1.6 | 4.8 | 0.00 | 0.08 | 0.00 | 77 | 1017.2 |
| 20260506062322 | 15 | 225 | 3.2 | 11.3 | 0.00 | 0.28 | 0.08 | 77 | 1016.8 |
| 20260506061822 | 15 | 227 | 3.2 | 11.3 | 0.00 | 0.30 | 0.08 | 77 | 1016.7 |
| 20260506061545 | 15 | 199 | 1.6 | 8.0 | 0.00 | 0.30 | 0.08 | 77 | 1016.7 |
| 20260506060824 | 15 | 215 | 1.6 | 8.0 | 0.00 | 0.33 | 0.08 | 77 | 1016.7 |
| 20260506060542 | 15 | 213 | 3.2 | 8.0 | 0.00 | 0.33 | 0.08 | 77 | 1016.6 |
| 20260506051307 | 15 | 236 | 4.8 | 12.9 | 0.00 | 0.46 | 0.08 | 78 | 1016.4 |
| 20260506050800 | 15 | 240 | 4.8 | 12.9 | 0.00 | 0.51 | 0.08 | 78 | 1016.2 |
| 20260506050519 | 15 | 201 | 4.8 | 11.3 | 0.00 | 0.51 | 0.08 | 78 | 1016.2 |
| 20260506044741 | 15 | 231 | 6.4 | 16.1 | 0.00 | 0.56 | 0.08 | 78 | 1016.0 |
| 20260506044238 | 15 | 219 | 8.0 | 12.9 | 0.00 | 0.58 | 0.08 | 78 | 1015.8 |
| 20260506043739 | 15 | 222 | 8.0 | 14.5 | 0.00 | 0.58 | 0.08 | 77 | 1015.6 |
| 20260506043238 | 15 | 221 | 6.4 | 16.1 | 0.00 | 0.61 | 0.08 | 77 | 1015.7 |
| 20260506042738 | 15 | 256 | 6.4 | 16.1 | 0.00 | 0.61 | 0.08 | 77 | 1015.7 |
| 20260506042239 | 15 | 238 | 4.8 | 12.9 | 0.00 | 0.64 | 0.08 | 78 | 1015.7 |
| 20260506041737 | 15 | 205 | 4.8 | 11.3 | 0.00 | 0.64 | 0.08 | 78 | 1015.7 |
| 20260506041457 | 15 | 227 | 3.2 | 8.0 | 0.00 | 0.66 | 0.08 | 78 | 1015.6 |
| 20260506040736 | 15 | 223 | 3.2 | 9.7 | 0.00 | 0.71 | 0.08 | 78 | 1015.7 |
| 20260506040235 | 15 | 257 | 3.2 | 9.7 | 0.00 | 0.74 | 0.08 | 78 | 1015.6 |
| 20260506035734 | 15 | 248 | 4.8 | 8.0 | 0.00 | 0.81 | 0.08 | 78 | 1015.6 |
| 20260506035234 | 15 | 236 | 4.8 | 9.7 | 0.00 | 0.89 | 0.08 | 78 | 1015.4 |
| 20260506034735 | 15 | 215 | 4.8 | 11.3 | 0.00 | 0.91 | 0.08 | 78 | 1015.5 |
| 20260506034235 | 15 | 223 | 6.4 | 11.3 | 0.00 | 0.94 | 0.08 | 78 | 1015.5 |
| 20260506033732 | 15 | 243 | 4.8 | 11.3 | 0.00 | 0.94 | 0.08 | 78 | 1015.4 |
| 20260506033233 | 15 | 223 | 4.8 | 11.3 | 0.00 | 0.97 | 0.08 | 77 | 1015.3 |
| 20260506032732 | 16 | 213 | 6.4 | 14.5 | 0.00 | 0.97 | 0.08 | 77 | 1015.2 |
| 20260506032226 | 16 | 211 | 4.8 | 14.5 | 0.00 | 0.97 | 0.08 | 77 | 1015.1 |
| 20260506031720 | 16 | 212 | 4.8 | 12.9 | 0.00 | 0.97 | 0.08 | 77 | 1015.1 |
| 20260506031214 | 16 | 229 | 6.4 | 12.9 | 0.00 | 0.99 | 0.08 | 77 | 1015.1 |
| 20260506030708 | 16 | 216 | 6.4 | 14.5 | 0.00 | 0.99 | 0.08 | 77 | 1014.9 |
| 20260506030202 | 16 | 238 | 6.4 | 16.1 | 0.00 | 0.99 | 0.08 | 77 | 1015.0 |
| 20260506025920 | 16 | 251 | 6.4 | 16.1 | 0.00 | 0.99 | 0.08 | 77 | 1014.9 |
| 20260506025150 | 16 | 226 | 4.8 | 14.5 | 0.00 | 0.99 | 0.08 | 77 | 1014.8 |
| 20260506024644 | 16 | 221 | 6.4 | 12.9 | 0.00 | 0.99 | 0.08 | 76 | 1014.8 |
| 20260506024138 | 16 | 242 | 6.4 | 17.7 | 0.00 | 0.99 | 0.08 | 76 | 1014.7 |
| 20260506023632 | 16 | 219 | 6.4 | 17.7 | 0.00 | 0.99 | 0.08 | 76 | 1014.8 |
| 20260506023126 | 16 | 234 | 6.4 | 12.9 | 0.00 | 0.99 | 0.08 | 76 | 1014.7 |
| 20260506022620 | 16 | 212 | 8.0 | 16.1 | 0.00 | 1.02 | 0.08 | 76 | 1014.6 |
| 20260506022114 | 16 | 248 | 6.4 | 17.7 | 0.00 | 1.02 | 0.08 | 76 | 1014.5 |
| 20260506021607 | 16 | 224 | 8.0 | 17.7 | 0.00 | 1.02 | 0.08 | 76 | 1014.5 |
| 20260506021102 | 16 | 268 | 6.4 | 14.5 | 0.00 | 1.02 | 0.08 | 76 | 1014.3 |
| 20260506020556 | 16 | 247 | 6.4 | 16.1 | 0.00 | 1.02 | 0.08 | 76 | 1014.4 |
| 20260506020050 | 16 | 230 | 8.0 | 16.1 | 0.00 | 1.02 | 0.08 | 76 | 1014.5 |
| 20260506015812 | 16 | 204 | 8.0 | 16.1 | 0.00 | 1.02 | 0.08 | 75 | 1014.5 |
| 20260506015037 | 17 | 216 | 8.0 | 19.3 | 0.00 | 1.02 | 0.08 | 75 | 1014.6 |
| 20260506014532 | 17 | 236 | 8.0 | 19.3 | 0.00 | 1.02 | 0.08 | 75 | 1014.5 |
| 20260506014026 | 17 | 252 | 8.0 | 17.7 | 0.00 | 1.04 | 0.08 | 74 | 1014.6 |
| 20260506013741 | 17 | 246 | 8.0 | 20.9 | 0.00 | 1.04 | 0.08 | 74 | 1014.5 |
| 20260506013014 | 17 | 238 | 8.0 | 20.9 | 0.00 | 1.04 | 0.08 | 74 | 1014.5 |
| 20260506012509 | 17 | 209 | 8.0 | 19.3 | 0.00 | 1.04 | 0.08 | 73 | 1014.5 |
| 20260506012002 | 17 | 210 | 8.0 | 19.3 | 0.00 | 1.07 | 0.08 | 73 | 1014.5 |
| 20260506011714 | 18 | 232 | 6.4 | 17.7 | 0.00 | 1.07 | 0.08 | 73 | 1014.3 |
| 20260506010950 | 18 | 202 | 9.7 | 22.5 | 0.00 | 1.07 | 0.08 | 73 | 1014.2 |
| 20260506010444 | 18 | 240 | 9.7 | 24.1 | 0.00 | 1.07 | 0.08 | 73 | 1014.2 |
| 20260506005938 | 18 | 248 | 8.0 | 24.1 | 0.00 | 1.07 | 0.08 | 73 | 1014.1 |
| 20260506005432 | 18 | 209 | 8.0 | 16.1 | 0.00 | 1.07 | 0.08 | 72 | 1014.2 |
| 20260506005146 | 18 | 204 | 8.0 | 16.1 | 0.00 | 1.09 | 0.08 | 72 | 1014.2 |
| 20260506004420 | 18 | 227 | 8.0 | 16.1 | 0.00 | 1.09 | 0.08 | 73 | 1014.2 |
| 20260506003914 | 18 | 252 | 9.7 | 17.7 | 0.00 | 1.09 | 0.08 | 72 | 1014.3 |
| 20260506003631 | 18 | 225 | 9.7 | 17.7 | 0.00 | 1.09 | 0.08 | 71 | 1014.3 |
| 20260506002902 | 18 | 248 | 6.4 | 17.7 | 0.00 | 1.09 | 0.08 | 71 | 1014.3 |
| 20260506001850 | 18 | 258 | 6.4 | 12.9 | 0.00 | 1.09 | 0.08 | 72 | 1014.2 |
| 20260506001344 | 18 | 215 | 6.4 | 16.1 | 0.00 | 1.09 | 0.08 | 73 | 1014.2 |
| 20260506000839 | 18 | 244 | 6.4 | 16.1 | 0.00 | 1.09 | 0.08 | 72 | 1014.2 |
| 20260506000332 | 18 | 238 | 6.4 | 14.5 | 0.00 | 1.09 | 0.08 | 73 | 1014.2 |
| 20260505235826 | 18 | 236 | 6.4 | 17.7 | 0.00 | 1.09 | 0.08 | 73 | 1014.2 |
| 20260505235320 | 18 | 225 | 6.4 | 17.7 | 0.00 | 1.09 | 0.08 | 73 | 1014.2 |
| 20260505234815 | 18 | 228 | 6.4 | 17.7 | 0.00 | 1.09 | 0.08 | 73 | 1014.1 |
| 20260505234308 | 18 | 240 | 6.4 | 14.5 | 0.00 | 1.09 | 0.08 | 73 | 1014.3 |
| 20260505233803 | 18 | 186 | 6.4 | 12.9 | 0.00 | 1.09 | 0.08 | 72 | 1014.2 |
| 20260505233256 | 18 | 224 | 6.4 | 12.9 | 0.00 | 1.09 | 0.08 | 72 | 1014.3 |
| 20260505232750 | 18 | 257 | 6.4 | 14.5 | 0.00 | 1.09 | 0.08 | 74 | 1014.2 |
| 20260505232244 | 18 | 198 | 6.4 | 14.5 | 0.00 | 1.09 | 0.08 | 73 | 1014.3 |
| 20260505231737 | 18 | 201 | 6.4 | 14.5 | 0.00 | 1.09 | 0.08 | 74 | 1014.3 |
| 20260505231231 | 18 | 228 | 6.4 | 11.3 | 0.00 | 1.09 | 0.08 | 74 | 1014.3 |
| 20260505230727 | 18 | 226 | 6.4 | 14.5 | 0.00 | 1.09 | 0.08 | 73 | 1014.4 |
| 20260505230219 | 18 | 244 | 6.4 | 14.5 | 0.00 | 1.09 | 0.08 | 74 | 1014.4 |
| 20260505225714 | 18 | 236 | 4.8 | 12.9 | 0.00 | 1.09 | 0.08 | 74 | 1014.4 |
| 20260505225209 | 18 | 207 | 4.8 | 11.3 | 0.00 | 1.09 | 0.08 | 75 | 1014.4 |
| 20260505224702 | 17 | 196 | 4.8 | 12.9 | 0.00 | 1.09 | 0.08 | 76 | 1014.5 |
| 20260505224416 | 17 | 202 | 4.8 | 12.9 | 0.00 | 1.09 | 0.08 | 75 | 1014.5 |
| 20260505223909 | 17 | 225 | 3.2 | 8.0 | 0.00 | 1.09 | 0.08 | 75 | 1014.6 |
| 20260505223144 | 17 | 237 | 3.2 | 6.4 | 0.00 | 1.09 | 0.08 | 75 | 1014.5 |
| 20260505222640 | 17 | 238 | 3.2 | 6.4 | 0.00 | 1.09 | 0.08 | 75 | 1014.5 |
| 20260505222132 | 17 | 238 | 3.2 | 8.0 | 0.00 | 1.09 | 0.08 | 75 | 1014.7 |
| 20260505221125 | 17 | 238 | 4.8 | 11.3 | 0.00 | 1.09 | 0.08 | 75 | 1014.6 |
| 20260505220624 | 17 | 238 | 3.2 | 11.3 | 0.00 | 1.09 | 0.08 | 75 | 1014.7 |
| 20260505220124 | 17 | 239 | 3.2 | 11.3 | 0.00 | 1.09 | 0.08 | 75 | 1014.7 |
| 20260505215623 | 17 | 240 | 4.8 | 14.5 | 0.00 | 1.09 | 0.08 | 74 | 1014.7 |
| 20260505215122 | 18 | 182 | 3.2 | 14.5 | 0.00 | 1.09 | 0.08 | 74 | 1014.7 |
| 20260505214622 | 18 | 221 | 3.2 | 8.0 | 0.00 | 1.09 | 0.08 | 73 | 1014.7 |
| 20260505214122 | 18 | 218 | 1.6 | 6.4 | 0.00 | 1.09 | 0.08 | 74 | 1014.8 |
| 20260505213121 | 18 | 217 | 3.2 | 8.0 | 0.00 | 1.09 | 0.08 | 73 | 1014.8 |
| 20260505212837 | 18 | 175 | 1.6 | 8.0 | 0.00 | 1.09 | 0.08 | 73 | 1014.8 |
| 20260505212118 | 18 | 201 | 0.0 | 6.4 | 0.00 | 1.09 | 0.08 | 71 | 1014.8 |
| 20260505211618 | 18 | 140 | 0.0 | 4.8 | 0.00 | 1.09 | 0.08 | 74 | 1014.8 |
| 20260505211120 | 19 | 232 | 1.6 | 6.4 | 0.00 | 1.09 | 0.08 | 69 | 1014.9 |
| 20260505210616 | 19 | 241 | 1.6 | 6.4 | 0.00 | 1.09 | 0.08 | 75 | 1014.9 |
| 20260505210116 | 18 | 233 | 3.2 | 8.0 | 0.00 | 1.09 | 0.08 | 77 | 1014.9 |
| 20260505205837 | 18 | 236 | 3.2 | 8.0 | 0.00 | 1.09 | 0.08 | 73 | 1014.9 |
| 20260505205116 | 18 | 213 | 1.6 | 9.7 | 0.00 | 1.09 | 0.08 | 74 | 1015.0 |
| 20260505204614 | 17 | 213 | 1.6 | 9.7 | 0.00 | 1.09 | 0.08 | 78 | 1015.1 |
| 20260505204114 | 17 | 247 | 1.6 | 4.8 | 0.00 | 1.09 | 0.08 | 79 | 1015.0 |
| 20260505203614 | 17 | 248 | 1.6 | 8.0 | 0.00 | 1.09 | 0.08 | 79 | 1015.2 |
| 20260505203114 | 16 | 165 | 1.6 | 8.0 | 0.00 | 1.09 | 0.08 | 79 | 1015.1 |
| 20260505202614 | 16 | 163 | 0.0 | 4.8 | 0.00 | 1.09 | 0.08 | 79 | 1015.1 |
| 20260505202115 | 16 | 276 | 0.0 | 3.2 | 0.00 | 1.09 | 0.08 | 80 | 1015.1 |
| 20260505201614 | 16 | 317 | 0.0 | 3.2 | 0.00 | 1.09 | 0.08 | 79 | 1015.1 |